Tucson Davis Monthan, AZ

9:05 AM MST on December 09, 2019 (GMT -0700)
Davis-Monthan Air Force Base

Weather History for KDMA - October, 2019

Change the Weather History Date:

Tuesday, October 29, 2019

  Actual Average Record
Temperature  
Mean Temperature 60 °F -  
Max Temperature 76 °F 78 °F 92 °F (1950)
Min Temperature 43 °F 50 °F 34 °F (1971)
Degree Days  
Heating Degree Days 6    
Growing Degree Days 10 (Base 50)    
Moisture  
Dew Point 19 °F    
Average Humidity 22    
Maximum Humidity 39    
Minimum Humidity 9    
Precipitation  
Precipitation 0.00 in - - ()
Sea Level Pressure  
Sea Level Pressure 29.83 in    
Wind  
Wind Speed 7 mph (WSW)    
Max Wind Speed 13 mph    
Max Gust Speed 20 mph    
Visibility 10 miles    
Events      
Averages and records for this station are not official NWS values.
T = Trace of Precipitation, MM = Missing Value Source: NWS Daily Summary

Daily Weather History Graph

Daily Weather History Graph

Search for Another Location

Airport or City:

Astronomy

Oct. 29, 2019 Rise Set
Actual Time 6:37 AM MST 5:36 PM MST
Civil Twilight 6:12 AM MST 6:01 PM MST
Nautical Twilight 5:43 AM MST 6:30 PM MST
Astronomical Twilight 5:15 AM MST 6:58 PM MST
Moon 8:12 AM MST (10/29) 7:07 PM MST (10/29)
Length of Visible Light 11h 48m
Length of Day
10h 58m
Waxing Crescent, 4% of the Moon is Illuminated
Oct 29
Waxing Crescent
Nov 4
First Quarter
Nov 12
Full
Nov 19
Last Quarter
Nov 26
New

Hourly Weather History & Observations

Time (MST) Temp. Windchill Dew Point Humidity Pressure Visibility Wind Dir Wind Speed Gust Speed Precip Events Conditions
12:58 AM 45.5 °F 41.3 °F 20.1 °F 36% 29.91 in 10.0 mi SE 8.1 mph - N/A   Clear
1:58 AM 45.0 °F 40.6 °F 20.8 °F 38% 29.90 in 10.0 mi East 8.1 mph - N/A   Clear
2:58 AM 44.2 °F 40.3 °F 20.8 °F 39% 29.88 in 10.0 mi SE 6.9 mph - N/A   Clear
3:58 AM 43.9 °F 39.9 °F 20.5 °F 39% 29.87 in 10.0 mi SE 6.9 mph - N/A   Clear
4:58 AM 45.1 °F 40.3 °F 20.5 °F 38% 29.88 in 10.0 mi ESE 9.2 mph - N/A   Clear
5:58 AM 45.7 °F - 20.8 °F 37% 29.87 in 10.0 mi Calm Calm - N/A   Clear
6:58 AM 45.3 °F 43.0 °F 21.7 °F 39% 29.89 in 10.0 mi East 4.6 mph - N/A   Clear
7:58 AM 54.5 °F - 22.8 °F 29% 29.88 in 10.0 mi SSE 5.8 mph - N/A   Clear
8:58 AM 60.3 °F - 25.2 °F 26% 29.88 in 10.0 mi South 8.1 mph - N/A   Clear
9:58 AM 65.5 °F - 26.6 °F 23% 29.86 in 10.0 mi SSW 8.1 mph - N/A   Clear
10:58 AM 69.3 °F - 28.8 °F 22% 29.85 in 10.0 mi South 5.8 mph - N/A   Clear
11:58 AM 71.8 °F - 23.2 °F 16% 29.83 in 10.0 mi WSW 4.6 mph - N/A   Clear
12:58 PM 73.8 °F - 18.0 °F 12% 29.78 in 10.0 mi West 8.1 mph - N/A   Clear
1:58 PM 75.0 °F - 16.9 °F 11% 29.76 in 10.0 mi NNW 10.4 mph - N/A   Clear
2:58 PM 76.8 °F - 13.6 °F 9% 29.75 in 10.0 mi WNW 6.9 mph 18.4 mph N/A   Clear
3:58 PM 76.3 °F - 13.3 °F 9% 29.75 in 10.0 mi WNW 12.7 mph 19.6 mph N/A   Clear
4:15 PM 75.2 °F - 15.8 °F 11% 29.75 in 10.0 mi West 11.5 mph - N/A   Clear
4:58 PM 74.1 °F - 16.2 °F 11% 29.75 in 10.0 mi West 11.5 mph - N/A   Clear
5:58 PM 69.6 °F - 16.5 °F 13% 29.78 in 10.0 mi West 9.2 mph - N/A   Clear
6:58 PM 66.2 °F - 17.2 °F 15% 29.81 in 10.0 mi WNW 4.6 mph - N/A   Clear
7:58 PM 63.5 °F - 18.0 °F 17% 29.83 in 10.0 mi WNW 5.8 mph - N/A   Clear
8:58 PM 60.1 °F - 19.9 °F 21% 29.84 in 10.0 mi NW 5.8 mph - N/A   Clear
9:58 PM 58.1 °F - 10.6 °F 15% 29.86 in 10.0 mi NW 8.1 mph - N/A   Clear
10:58 PM 59.0 °F - 8.2 °F 13% 29.86 in 10.0 mi WNW 6.9 mph - N/A   Clear